SINOD-D 1

Last updated on Sat Aug 15 2026 00:03:44 GMT+0000 (Coordinated Universal Time)

1 40968U 15058E 26226.29944633 .00002024 00000+0 16699-3 0 9995 2 40968 64.7738 76.8654 0123564 30.8773 329.9531 14.96344505125358
UTC large
Height (km)
Speed (km/s)
/
Latitude / Longitude
Inclination (degrees)
Orbital Period (minutes)
Azimuth
Elevation
Range (km)
Doppler Factor

Next 0 passes for location: London (51.5072 / 0.1276)

No passes found over London.
SINOD-D 1